C49MR CYKF-CYTZ

Flight info

Callsign C49MR
Flight time N/A
Altitude 2500
Route CYKF/26 VFR WESTBOUND
Aircraft C172

Departure

Time 2026-05-06 00:26
Airport Region of Waterloo International Airport (CYKF)

Arrival

Time N/A
Airport Billy Bishop Toronto City Airport (CYTZ)
Time Latitude Longitude Altitude Speed Heading
2026-05-06 00:25 43.72186 -80.16822 3431 ft 92 kts 80°
2026-05-06 00:26 43.72261 -80.15947 3443 ft 92 kts 82°
2026-05-06 00:26 43.72315 -80.15054 3398 ft 96 kts 82°
2026-05-06 00:26 43.72388 -80.14155 3428 ft 89 kts 80°
2026-05-06 00:26 43.72469 -80.13306 3443 ft 89 kts 80°
2026-05-06 00:27 43.72565 -80.12434 3410 ft 94 kts 75°
2026-05-06 00:27 43.72678 -80.11530 3394 ft 96 kts 79°
2026-05-06 00:27 43.72765 -80.10610 3402 ft 95 kts 79°
2026-05-06 00:27 43.72840 -80.09719 3432 ft 93 kts 83°
2026-05-06 00:28 43.72907 -80.08856 3466 ft 89 kts 81°
2026-05-06 00:28 43.72981 -80.07999 3469 ft 90 kts 78°
2026-05-06 00:28 43.73039 -80.07139 3514 ft 89 kts 82°
2026-05-06 00:28 43.73093 -80.06264 3477 ft 95 kts 82°
2026-05-06 00:29 43.73177 -80.05368 3492 ft 92 kts 78°
2026-05-06 00:29 43.73251 -80.04507 3503 ft 89 kts 82°
2026-05-06 00:29 43.73025 -80.03616 3027 ft 104 kts 126°
2026-05-06 00:29 43.72840 -80.02961 2572 ft 54 kts 75°
2026-05-06 00:30 43.72916 -80.02711 1366 ft 0 kts 162°
2026-05-06 00:30 43.72916 -80.02710 1366 ft 0 kts 162°
2026-05-06 00:33 43.72916 -80.02709 1366 ft 0 kts 161°
2026-05-06 00:33 43.72900 -80.02644 1353 ft 0 kts 161°
2026-05-06 00:33 43.72898 -80.02643 1352 ft 0 kts 159°
2026-05-06 00:35 43.72880 -80.02637 1353 ft 4 kts 199°
2026-05-06 00:35 43.72877 -80.02640 1353 ft 0 kts 212°